sat.trackr.live / text

‹ back to catalog

STARLINK-1942

NORAD 46794 · 2020-074BH

PAYLOAD ACTIVE UNKNOWN

§ Identity

Operator
Country
US
Launch date
2020-10-24
Launch site
AFETR
Launch vehicle
Mass (kg)
RCS (m²)

Purposes: comms

External: N2YO · Heavens-Above · Gunter

§ Orbital elements

Epoch: 2026-05-24T20:53:24.782208Z

Period
92.27 min
Inclination
53.0404°
Eccentricity
0.0005722
Mean motion
15.60556036 rev/d
Perigee alt
382.2 km
Apogee alt
389.9 km
Semi-major
6,764.2 km
B*
1.1685e-3
RAAN
286.3608°
Arg perigee
255.5605°
Mean anomaly
104.4773°
Rev number
30,891

§ Raw data

STARLINK-19421 46794U 20074BH  26144.87042572  .00099013  00000+0  11685-2 0  99992 46794  53.0404 286.3608 0005722 255.5605 104.4773 15.60556036308919

JSON: /api/v1/satellites/46794 · /tle

For live sub-satellite position, see the globe view (requires WebGL).

§ Visibility from observer

Set your observer location to see the next 7 days of passes ≥ 10°. The values pass through the URL so the page stays shareable.

No JS? Fill the form by hand. The geolocation button needs JavaScript.